Home   Weather   Lehrte   Past weeks

Flag for Germany Past Weather in Lehrte, Lower Saxony, Germany — Yesterday and Last 2 Weeks

Now
63 °F

Sunny.


Feels Like: 63 °F
Forecast: 62 / 68 °F
Wind: 8 mph from Southeast

Location: Hannover

Current Time: Aug 17, 2017 at 8:24:45 am

Latest Report: Aug 17, 2017 at 7:50 am


Visibility: 10 mi

Pressure: 30.04 "Hg

Humidity: 83%

Dew Point: 57 °F

Location of LehrteLocation

Past Weather in Lehrte — Graph

°F

Lehrte Temperature Yesterday

Maximum temperature yesterday: 73 °F (at 1:50 pm)
Minimum temperature yesterday: 59 °F (at 11:20 pm)
Average temperature yesterday: 66 °F

High & Low Weather Summary for the Past Weeks

 TemperatureHumidityPressure
High82 °F (Aug 15, 5:20 pm)100% (Aug 2, 6:20 am)30.21 "Hg (Aug 2, 6:20 am)
Low50 °F (Aug 7, 4:50 am)36% (Aug 7, 12:50 pm)29.74 "Hg (Aug 3, 2:20 pm)
Average64 °F75%30.01 "Hg
* Reported Aug 2 6:20 am — Aug 17 6:50 am, Lehrte. Weather by CustomWeather, © 2017

Note: Actual official high and low records may vary slightly from our data, if they occured in-between our weather recording intervals... More about our weather records

Advertising

Lehrte Weather History for the Previous 24 Hours

Scroll right to see more
 ConditionsComfort  
Time TempWeatherWind HumidityBarometerVisibility
6:50 am
Thu, Aug 17
59 °FSunny.3 mph94%30.04 "Hg10 mi
6:20 am57 °FPassing clouds.3 mph94%30.07 "HgN/A
5:50 am59 °FClear.3 mph88%30.07 "Hg10 mi
5:20 am59 °FClear.5 mph88%30.07 "Hg10 mi
4:50 am59 °FPassing clouds.3 mph88%30.07 "HgN/A
4:20 am61 °FClear.8 mph83%30.07 "Hg10 mi
3:50 am59 °FPassing clouds.3 mph88%30.09 "HgN/A
3:20 am59 °FClear.5 mph88%30.09 "Hg10 mi
3:04 am59 °FClear.5 mph88%30.09 "Hg10 mi
2:20 am59 °FClear.6 mph88%30.09 "Hg10 mi
1:50 am61 °FPassing clouds.5 mph83%30.12 "HgN/A
1:20 am61 °FClear.3 mph88%30.12 "Hg10 mi
12:53 am61 °FClear.5 mph83%30.12 "Hg10 mi
12:50 am61 °FClear.5 mph88%30.12 "Hg10 mi
12:20 am59 °FClear.3 mph94%30.12 "Hg10 mi
11:50 pm
Wed, Aug 16
61 °FClear.2 mph88%30.15 "Hg10 mi
11:20 pm59 °FClear.1 mph94%30.15 "Hg10 mi
10:50 pm61 °FClear.1 mph88%30.15 "Hg10 mi
10:29 pm63 °FClear.2 mph83%30.15 "Hg10 mi
10:20 pm63 °FClear.2 mph83%30.15 "Hg10 mi
9:50 pm63 °FClear.2 mph83%30.15 "Hg10 mi
8:50 pm64 °FClear.2 mph78%30.15 "Hg10 mi
8:20 pm66 °FSunny.3 mph78%30.15 "Hg10 mi
7:50 pm68 °FSunny.3 mph78%30.15 "Hg10 mi
7:20 pm70 °FSunny.2 mph64%30.15 "Hg10 mi
6:50 pm70 °FSunny.3 mph64%30.15 "Hg10 mi
6:20 pm72 °FSunny.5 mph57%30.15 "Hg10 mi
5:50 pm72 °FSunny.5 mph57%30.15 "Hg10 mi
5:20 pm73 °FPassing clouds.5 mph50%30.15 "HgN/A
4:50 pm72 °FPassing clouds.6 mph57%30.15 "HgN/A
4:20 pm73 °FPartly sunny.3 mph50%30.15 "HgN/A
3:50 pm73 °FPartly sunny.6 mph50%30.15 "HgN/A
3:20 pm73 °FPartly sunny.7 mph53%30.15 "HgN/A
2:50 pm73 °FScattered clouds.7 mph50%30.15 "HgN/A
2:20 pm72 °FScattered clouds.7 mph57%30.18 "HgN/A
1:50 pm73 °FScattered clouds.8 mph57%30.18 "HgN/A
1:20 pm70 °FPassing clouds.7 mph69%30.18 "HgN/A
12:50 pm70 °FScattered clouds.8 mph69%30.18 "HgN/A
12:20 pm70 °FScattered clouds.5 mph73%30.18 "HgN/A
11:50 am68 °FPartly sunny.7 mph73%30.15 "HgN/A
11:20 am68 °FPartly sunny.7 mph78%30.15 "HgN/A
10:50 am66 °FPartly sunny.9 mph83%30.15 "HgN/A
10:20 am66 °FPartly sunny.7 mph83%30.15 "Hg5 mi
10:00 am64 °FPartly sunny.7 mph88%30.15 "Hg5 mi
9:50 am64 °FPartly sunny.6 mph88%30.15 "Hg4 mi
9:35 am64 °FPartly sunny.6 mph88%30.15 "Hg4 mi
8:50 am63 °FFog.9 mph94%30.15 "Hg3 mi
8:20 am63 °FFog.9 mph94%30.12 "Hg2 mi
Weather by CustomWeather, © 2017

See weather overviewHow to use our weather pages